www.pogodaiklimat.ru

Погода и климат >> Архив погоды >> Россия >> Чукотка >> Бухта Амбарчик


ПОГОДА в Бухте Амбарчик

  • Прогноз погоды в Бухте Амбарчик
  • Монитор погоды в Бухте Амбарчик
  • Климат города

АРХИВ ПОГОДЫ в Бухте Амбарчик

Время (UTC), дата Ветер
(напр.,м/с)
 
Видим.   Явления Облачность Т
(С)
Тd
(С)
f
(%)
Тe
(С)
Тes
(С)
Комфортность P
(гПа)
Po
(гПа)
Тmin
(С)
Tmax
(С)
R
(мм)
R24
(мм)
S
(см)
09 18.04 В 1
{3}
20 км 9/4 300 м
[Sc Ac lent Ci fib]
-4.6 -5.9 91 -7 -7 1016.6 1013.6 -1.6
12 18.04 ЮВ 2
{2}
4000 м слабый ливневой снег 10/10 300 м
[Cb cap]
-4.9 -5.5 96 -9 -9 1018.5 1015.5
15 18.04 ЮВ 2
{2}
4000 м слабый ливневой снег 10/10 300 м
[Cb cap]
-4.9 -5.5 96 -9 -9 1018.5 1015.5
18 18.04 ЮВ 1
{5}
4000 м слабый ливневой снег 10/10 300 м
[Cb cap]
-5.1 -5.6 96 -8 -8 1021.8 1018.8
21 18.04 ЮЗ 3
{5}
20 км {ливн. осадки} 9/5 600 м
[Sc Ac trans Ci fib]
-5.6 -6.8 91 -11 -11 1023.5 1020.5 -7.1 0.4 38
00 19.04 ЮЗ 5
{7}
20 км {ливн. осадки} 3/0
[Ci fib]
-3.0 -5.1 85 -10 -7 1024.8 1021.8
03 19.04 Ю 5
{6}
20 км 3/0
[Ci fib]
-3.0 -5.1 85 -10 -7 1025.5 1022.5
06 19.04 ЮВ 6
{7}
20 км 3/0
[Ci fib]
-2.8 -5.6 81 -10 -9 1024.7 1021.7
09 19.04 Ю 6
{7}
20 км 6/0
[Ci fib]
-3.5 -6.1 82 -11 -11 1024.5 1021.5 -1.6
12 19.04 Ю 8
{9}
20 км позёмок {метель} 9/0
[Ac trans Ci fib]
-2.1 -6.1 74 -10 -10 1024.0 1021.0
15 19.04 Ю 9
{9}
20 км позёмок {метель} 5/0
[Ac trans Ci fib]
-2.6 -6.9 72 -11 -11 1023.5 1020.5
18 19.04 Ю 7
{9}
20 км {метель} 4/0
[Ac trans Ci fib]
-3.7 -7.7 74 -12 -12 1023.5 1020.5
21 19.04 Ю 2
{7}
20 км 8/0
[Ac trans Ci fib]
-1.5 -5.9 72 -5 -3 1023.8 1020.8 -5.7 38
00 20.04 З 2
{6}
20 км 3/0
[Ci fib]
-0.2 -6.2 64 -3 +3 1023.8 1020.8
03 20.04 Ю 4
{6}
20 км 3/0
[Ac lent Ci fib]
-1.0 -4.4 78 -7 -3 1023.8 1020.8
06 20.04 Ю 6
{7}
20 км 3/0
[Ci fib]
-1.9 -5.1 79 -9 -8 1023.2 1020.2
09 20.04 Ю 8
{9}
20 км 3/0
[Ci fib]
-3.2 -6.2 80 -11 -11 1022.9 1019.9 +0.3
12 20.04 Ю 7
{9}
20 км 8/0
[Ac trans Ci fib]
-3.8 -7.1 78 -12 -12 1022.5 1019.5
15 20.04 Ю 7
{9}
20 км 9/0
[Ac trans Ci fib]
-3.3 -6.9 76 -11 -11 1021.9 1018.9
18 20.04 Ю 7
{9}
20 км 8/0
[Ac trans Ci fib]
-2.7 -6.4 76 -10 -10 1020.9 1017.9
21 20.04 Ю 5
{8}
20 км 8/4 600 м
[Sc Ac trans Ci fib]
-1.0 -5.2 73 -7 -6 1021.2 1018.2 -4.1 38
00 21.04 З 2
{7}
20 км 8/4 600 м
[Sc Ac trans Ci fib]
+1.0 -3.6 71 -2 +1 1021.3 1018.3
03 21.04 З 3
{5}
20 км 3/0 600 м
[Ac trans Ci fib]
+0.5 -3.2 76 -4 +1 1021.9 1018.9
06 21.04 СЗ 1
{3}
20 км 3/0
[Ac trans Ci fib]
+0.7 -4.3 69 -1 +2 1022.3 1019.3
09 21.04 штиль 0
{1}
20 км 3/1 600 м
[Sc Ac trans]
-2.1 -4.6 83 -3 -3 1023.1 1020.1 +3.1
12 21.04 ЮВ 3
{5}
20 км 3/0
[Ci fib]
-3.5 -5.7 85 -9 -9 1023.3 1020.3
15 21.04 ЮВ 2
{6}
20 км 3/0
[Ci fib]
-3.5 -6.0 83 -8 -8 1023.3 1020.3
18 21.04 В 2
{6}
20 км 8/0
[Ac trans Ci fib]
-2.2 -5.5 78 -6 -6 1023.4 1020.4
21 21.04 ЮВ 2
{5}
20 км 6/0
[Ci fib]
-1.1 -4.8 76 -5 -2 1023.7 1020.7 -8.8 36
00 22.04 ЮВ 2
{3}
20 км 4/0
[Ci fib]
-1.3 -4.8 77 -5 +1 1023.3 1020.3
03 22.04 Ю 1
{5}
20 км 4/0
[Ac trans Ci fib]
+0.1 -3.0 80 -2 +4 1023.3 1020.3
06 22.04 В 3
{4}
20 км 3/0
[Ac trans Ci fib]
-3.8 -5.4 89 -9 -7 1023.5 1020.5
09 22.04 штиль 0
{5}
20 км 3/0
[Ac trans Ci fib]
-5.0 -6.6 89 -6 -6 1024.0 1021.0 +2.3
12 22.04 С 1
{5}
20 км 3/0
[Ac trans Ci fib]
-7.8 -8.3 96 -10 -10 1024.1 1021.0
15 22.04 Ю 1
{5}
20 км 4/1 100 м
[St Ac trans Ci fib]
-10.7 -11.9 91 -13 -13 1024.0 1020.9
18 22.04 штиль 0
{5}
20 км 4/0
[Ac trans Ci fib]
-12.3 -13.6 90 -12 -12 1024.6 1021.5
21 22.04 штиль 0
{5}
20 км 8/0
[Ac trans Ci fib]
-5.8 -7.7 86 -7 -4 1024.8 1021.8 -14.4 36
00 23.04 СВ 1
{5}
20 км 6/0
[Ac trans Ci fib]
-6.2 -8.6 83 -9 -3 1025.2 1022.2
03 23.04 В 3
{3}
20 км 6/0
[Ac trans Ci fib]
-5.9 -7.8 86 -12 -7 1025.6 1022.6
06 23.04 СЗ 1
{3}
20 км 3/0
[Ci fib]
-4.4 -6.9 83 -7 -4 1025.6 1022.6
09 23.04 СЗ 1
{3}
20 км 4/3 300 м
[Sc Ac trans Ci fib]
-9.4 -10.1 95 -12 -12 1026.1 1023.0 -3.6
12 23.04 СЗ 1
{5}
20 км 9/6 300 м
[Sc Ac trans Ci fib]
-11.2 -12.2 92 -13 -13 1026.2 1023.1
15 23.04 ЮВ 2
{5}
1000 м дымка 10/10 300 м
[Sc]
-10.5 -11.6 92 -15 -15 1026.0 1022.9
18 23.04 С 1
{5}
1000 м дымка 10/10 300 м
[Sc]
-10.4 -11.4 92 -13 -13 1026.4 1023.3
21 23.04 С 1
{3}
1000 м дымка 10/10 300 м
[Sc]
-10.0 -11.0 92 -12 -12 1026.6 1023.5 -11.9 35
00 24.04 С 1
{5}
1000 м дымка 10/10 300 м
[Sc]
-8.4 -9.3 93 -11 -11 1026.0 1022.9
03 24.04 С 1
{3}
4000 м дымка 10/10 300 м
[Sc]
-7.6 -8.6 93 -10 -10 1025.6 1022.6
06 24.04 СВ 2
{3}
500 м переохл. туман ?/? -8.1 -8.1 100 -13 -13 1025.1 1022.0
09 24.04 В 1
{4}
500 м переохл. туман ?/? -8.6 -8.6 100 -11 -11 1024.8 1021.7 -7.3
12 24.04 СВ 3
{4}
500 м переохл. туман ?/? -9.5 -9.5 100 -16 -16 1024.6 1021.5
15 24.04 В 2
{4}
500 м переохл. туман ?/? -10.5 -10.5 100 -15 -15 1023.7 1020.6
18 24.04 СВ 3
{4}
500 м переохл. туман ?/? -10.5 -10.5 100 -17 -17 1023.2 1020.1
21 24.04 СВ 4
{4}
4000 м в посл. час туман 10/10 300 м
[Sc]
-11.0 -12.2 91 -18 -18 1022.6 1019.5 -11.0 35
00 25.04 СВ 4
{5}
10 км {туман} 10/10 300 м
[Sc]
-9.8 -10.8 92 -17 -17 1021.6 1018.5
03 25.04 В 7
{8}
20 км 10/10 300 м
[Sc]
-8.9 -9.8 93 -18 -18 1020.5 1017.4

 

Местоположение метеостанции Бухта Амбарчик (Чукотка, Россия): широта 69.62 долгота 162.30 высота над уровнем моря 23 м.

В архиве по умолчанию представлена погода в Бухте Амбарчик за последнюю неделю. Архивные данные за месяц целиком и за предыдущие месяцы, начиная с января 2011 года, Вы можете получить, выбрав интересующий диапазон дат из раскрывающегося списка и нажав кнопку "Ввод!".

Внимание! Время в таблицах - всемирное. Для получения местного времени необходимо прибавить поправку, которая в Бухте Амбарчик равна 12 ч.

Смотрите также архив погоды в соседних городах и на ближайших метеорологических станциях:

Погода в Черском (Якутия, Россия) (107 км)
Погода в Анюйске (Чукотка, Россия) (145 км)
Погода в Раучуе (Чукотка, Россия) (164 км)
Погода в Константиновской (Чукотка, Россия) (170 км)
Погода в Колымской (Якутия, Россия) (177 км)
Погода на Островном (Чукотка, Россия) (182 км)
Погода на Айон Острове (Чукотка, Россия) (218 км)
Погода в Билибино (Чукотка, Россия) (240 км)
Погода в Певеке (Чукотка, Россия) (305 км)
Погода в Андрюшкино (Якутия, Россия) (309 км)

Пояснения к столбцам:

Ветер - указаны скорость ветра в м/с - средняя за 10 мин, порывы в срок и между сроками (в фигурных скобках) и направление, откуда дует ветер: С - северный, СВ - северо-восточный, В - восточный, ЮВ - юго-восточный, Ю - южный, ЮЗ - юго-западный, З - западный, СЗ - северо-западный.
Видимость - горизонтальная дальность видимости в метрах или километрах. При видимости от 1 до 10 км при отсутствии осадков обычно наблюдается дымка, при ухудшении видимости до 1 км и менее - туман. В сухую погоду видимость может ухудшаться дымом, пылью или мглою.
Явления - указаны атмосферные явления, наблюдавшиеся в срок или в последний час перед сроком; фигурными скобками обозначены явления, наблюдавшиеся между сроками (за 1-3 часа до срока); квадратными скобками обозначены град или гололедные отложения с указанием их диаметра в мм.
Облачность - указаны через наклонную черту общая и нижняя облачность в баллах и высота нижней границы облаков в метрах; квадратными скобками обозначены формы облаков: Ci - перистые, Cs - перисто-слоистые, Cc - перисто-кучевые, Ac - высококучевые, As - высокослоистые, Sc - слоисто-кучевые, Ns - слоисто-дождевые, Cu - кучевые, Cb - кучево-дождевые. Подробнее классификацию облаков см. в Атласе облаков (PDF).
T - Температура воздуха - температура, измеренная на высоте 2 м над землей.
Td - Температура точки росы - температура, при понижении до которой содержащийся в воздухе водяной пар достигнет насыщения.
f - Относительная влажность воздуха - влажноcть воздуха, измеренная на высоте 2 м над землей.
Te - Эффективная температура - температура, которую ощущает одетый по сезону человек в тени. Характеристика душности погоды. При расчете учитывается влияние влажности воздуха и скорости ветра на теплоощущения человека.
Tes - Эффективная температура на солнце - температура, которую ощущает человек, с поправкой на солнечный нагрев. Характеристика знойности погоды. Зависит от высоты солнца над горизонтом, облачности и скорости ветра. Ночью, в пасмурную погоду, а также при ветре 12 м/с и более поправка равна нулю.
P - Атмосферное давление - приведенное к уровню моря атмосферное давление.
Po - Атмосферное давление - измеренное на уровне метеостанции атмосферное давление.
Tmin - Минимальная температура - минимум температуры воздуха на высоте 2 м над землей.
Tmax - Максимальная температура - максимум температуры воздуха на высоте 2 м над землей.
R - Количество осадков - Количество выпавших осадков за период времени, мм. При наведении курсора мыши на число - период времени, за который выпало указанное количество осадков.
R24 - Количество осадков - Количество выпавших осадков за 24 часа, мм.
S - Снежный покров - Высота снежного покрова, см. При наведении курсора мыши на число - состояние снежного покрова и степень покрытия местности в баллах.